Date String (YYYY-MM-DD hh:mm:ss) UTC,Instrument flags,Ambient pressure (hPa),Sample flow (lpm),Bypass flow (lpm),Sample temperature (°C),Ambient temperature (°C),ASC tube jacket temperature (°C),LED temperature (°C),Box temperature (°C),Sample RH (%),Span deviation,Mass concentration (μg/m³),Mass concentration (μg/m³),Mass concentration (μg/m³)
DateTimeUTC,F1_M11,P_M11,Q1_M11,Q2_M11,T1_M11,T2_M11,T3_M11,T4_M11,T5_M11,U1_M11,ZSPAN_M11,X0_M11,X2_M11,X1_M11
2023-02-17 01:00:00,,0827.9,4.96,0.00,22.5,22.9,00.0,31.1,24.6,06.1,0000.0,0009.06,0003.36,0002.30
2023-02-17 01:01:00,,0827.9,4.94,0.00,22.6,22.6,00.0,31.2,24.6,06.1,0000.0,0009.31,0003.37,0002.31
2023-02-17 01:02:00,,0827.9,4.98,0.00,22.6,22.3,00.0,31.2,24.5,06.0,0000.0,0010.02,0003.36,0002.32
2023-02-17 01:03:00,,0827.8,5.01,0.00,22.6,21.9,00.0,31.3,24.5,06.0,0000.0,0009.80,0003.33,0002.32
2023-02-17 01:04:00,,0827.9,4.98,0.00,22.6,21.6,00.0,31.3,24.4,06.1,0000.0,0009.56,0003.31,0002.32
2023-02-17 01:05:00,,0827.9,4.99,0.00,22.6,21.4,00.0,31.3,24.4,06.1,0000.0,0009.07,0003.29,0002.34
2023-02-17 01:06:00,,0828.0,4.99,0.00,22.6,21.3,00.0,31.3,24.4,06.1,0000.0,0009.99,0003.30,0002.34
2023-02-17 01:07:00,,0827.9,4.99,0.00,22.6,21.2,00.0,31.3,24.3,06.1,0000.0,0010.04,0003.31,0002.35
2023-02-17 01:08:00,,0828.0,5.00,0.00,22.5,21.1,00.0,31.3,24.3,06.1,0000.0,0010.24,0003.34,0002.38
2023-02-17 01:09:00,,0827.9,5.01,0.00,22.5,21.0,00.0,31.3,24.3,06.2,0000.0,0010.95,0003.38,0002.42
2023-02-17 01:10:00,,0827.8,4.99,0.00,22.5,20.9,00.0,31.3,24.3,06.3,0000.0,0011.42,0003.42,0002.48
2023-02-17 01:11:00,,0827.9,4.99,0.00,22.5,20.8,00.0,31.3,24.2,06.3,0000.0,0011.65,0003.47,0002.52
2023-02-17 01:12:00,,0827.9,5.01,0.00,22.5,20.8,00.0,31.3,24.2,06.3,0000.0,0012.70,0003.49,0002.56
2023-02-17 01:13:00,,0827.9,4.99,0.00,22.4,20.8,00.0,31.3,24.2,06.3,0000.0,0011.75,0003.47,0002.59
2023-02-17 01:14:00,,0827.9,5.00,0.00,22.4,20.8,00.0,31.3,24.2,06.3,0000.0,0011.06,0003.49,0002.64
2023-02-17 01:15:00,,0828.0,5.00,0.00,22.4,20.8,00.0,31.3,24.2,06.3,0000.0,0011.13,0003.55,0002.71
2023-02-17 01:16:00,,0827.9,5.00,0.00,22.4,20.7,00.0,31.3,24.2,06.3,0000.0,0011.14,0003.62,0002.79
2023-02-17 01:17:00,,0827.9,4.99,0.00,22.4,20.7,00.0,31.3,24.1,06.3,0000.0,0010.31,0003.66,0002.88
2023-02-17 01:18:00,,0827.9,4.99,0.00,22.4,20.7,00.0,31.3,24.1,06.3,0000.0,0010.48,0003.68,0002.97
2023-02-17 01:19:00,,0827.9,5.00,0.00,22.3,20.7,00.0,31.3,24.1,06.3,0000.0,0010.55,0003.72,0003.06
2023-02-17 01:20:00,,0827.9,5.02,0.00,22.3,20.7,00.0,31.3,24.1,06.4,0000.0,0009.89,0003.74,0003.13
2023-02-17 01:21:00,,0827.9,5.01,0.00,22.3,20.6,00.0,31.3,24.0,06.4,0000.0,0009.88,0003.77,0003.17
2023-02-17 01:22:00,,0828.0,4.99,0.00,22.3,20.8,00.0,31.2,24.1,06.4,0000.0,0010.08,0003.81,0003.21
2023-02-17 01:23:00,,0828.0,4.98,0.00,22.4,21.7,00.0,31.2,24.3,06.4,0000.0,0008.62,0003.83,0003.25
2023-02-17 01:24:00,,0828.0,5.04,0.00,22.5,22.6,00.0,31.1,24.5,06.4,0000.0,0008.71,0003.90,0003.29
2023-02-17 01:25:00,,0827.9,4.98,0.00,22.6,22.6,00.0,31.2,24.6,06.4,0000.0,0008.86,0003.95,0003.33
2023-02-17 01:26:00,,0827.9,5.00,0.00,22.6,22.2,00.0,31.2,24.5,06.4,0000.0,0008.79,0003.95,0003.35
2023-02-17 01:27:00,,0827.9,4.99,0.00,22.6,21.9,00.0,31.3,24.4,06.4,0000.0,0008.76,0003.97,0003.36
2023-02-17 01:28:00,,0827.9,5.02,0.00,22.6,21.6,00.0,31.3,24.4,06.3,0000.0,0008.68,0003.96,0003.37
2023-02-17 01:29:00,,0827.9,5.00,0.00,22.6,21.4,00.0,31.3,24.3,06.4,0000.0,0008.37,0003.96,0003.38
2023-02-17 01:30:00,,0827.9,4.99,0.00,22.5,21.2,00.0,31.3,24.3,06.5,0000.0,0008.21,0003.96,0003.38
2023-02-17 01:31:00,,0828.0,5.00,0.00,22.5,21.0,00.0,31.3,24.3,06.5,0000.0,0008.24,0003.97,0003.38
2023-02-17 01:32:00,,0827.9,5.00,0.00,22.5,20.9,00.0,31.3,24.2,06.5,0000.0,0007.77,0003.97,0003.38
2023-02-17 01:33:00,,0827.9,4.99,0.00,22.5,20.8,00.0,31.3,24.2,06.5,0000.0,0007.33,0003.96,0003.40
2023-02-17 01:34:00,,0827.9,5.01,0.00,22.5,20.7,00.0,31.3,24.2,06.5,0000.0,0007.36,0003.95,0003.40
2023-02-17 01:35:00,,0827.9,5.01,0.00,22.4,20.6,00.0,31.3,24.2,06.4,0000.0,0008.12,0003.95,0003.40
2023-02-17 01:36:00,,0827.9,4.99,0.00,22.4,20.6,00.0,31.3,24.1,06.5,0000.0,0008.10,0003.92,0003.39
2023-02-17 01:37:00,,0828.0,5.01,0.00,22.4,20.5,00.0,31.3,24.1,06.6,0000.0,0008.03,0003.90,0003.39
2023-02-17 01:38:00,,0827.9,5.00,0.00,22.4,20.5,00.0,31.3,24.1,06.6,0000.0,0008.01,0003.89,0003.40
2023-02-17 01:39:00,,0828.0,5.01,0.00,22.3,20.5,00.0,31.3,24.0,06.5,0000.0,0008.14,0003.92,0003.41
2023-02-17 01:40:00,,0827.9,5.00,0.00,22.3,20.7,00.0,31.2,24.1,06.6,0000.0,0008.41,0003.95,0003.42
2023-02-17 01:41:00,,0828.0,5.03,0.00,22.4,21.5,00.0,31.2,24.3,06.6,0000.0,0008.38,0003.96,0003.43
2023-02-17 01:42:00,,0827.9,4.95,0.00,22.5,22.4,00.0,31.1,24.5,06.7,0000.0,0008.38,0003.97,0003.46
2023-02-17 01:43:00,,0828.0,4.96,0.00,22.6,22.6,00.0,31.2,24.6,06.7,0000.0,0008.54,0003.98,0003.48
2023-02-17 01:44:00,,0828.0,5.00,0.00,22.6,22.2,00.0,31.2,24.5,06.8,0000.0,0008.79,0004.03,0003.49
2023-02-17 01:45:00,,0828.0,5.00,0.00,22.6,21.8,00.0,31.3,24.4,06.8,0000.0,0008.90,0004.08,0003.52
2023-02-17 01:46:00,,0827.9,5.02,0.00,22.6,21.4,00.0,31.3,24.3,06.9,0000.0,0008.31,0004.11,0003.55
2023-02-17 01:47:00,,0828.0,4.99,0.00,22.5,21.1,00.0,31.3,24.2,06.9,0000.0,0008.63,0004.14,0003.59
2023-02-17 01:48:00,,0827.9,5.00,0.00,22.5,21.0,00.0,31.3,24.2,06.8,0000.0,0008.65,0004.14,0003.61
2023-02-17 01:49:00,,0828.0,5.02,0.00,22.5,20.8,00.0,31.3,24.1,06.9,0000.0,0008.89,0004.15,0003.64
2023-02-17 01:50:00,,0828.0,5.00,0.00,22.4,20.7,00.0,31.3,24.1,06.9,0000.0,0009.27,0004.15,0003.65
2023-02-17 01:51:00,,0828.0,5.01,0.00,22.4,20.6,00.0,31.3,24.0,07.0,0000.0,0009.09,0004.17,0003.67
2023-02-17 01:52:00,,0827.9,5.00,0.00,22.3,20.5,00.0,31.3,23.9,07.0,0000.0,0009.09,0004.17,0003.69
2023-02-17 01:53:00,,0828.0,4.98,0.00,22.3,20.4,00.0,31.3,23.9,07.0,0000.0,0009.06,0004.17,0003.69
2023-02-17 01:54:00,,0828.0,5.02,0.00,22.3,20.4,00.0,31.2,23.9,07.1,0000.0,0009.01,0004.17,0003.69
2023-02-17 01:55:00,,0828.0,5.01,0.00,22.3,20.7,00.0,31.2,23.9,07.2,0000.0,0008.91,0004.14,0003.68
2023-02-17 01:56:00,,0828.0,5.01,0.00,22.3,21.7,00.0,31.1,24.2,07.1,0000.0,0008.81,0004.10,0003.66
2023-02-17 01:57:00,,0828.0,5.00,0.00,22.5,22.7,00.0,31.1,24.4,07.0,0000.0,0008.88,0004.09,0003.65
2023-02-17 01:58:00,,0828.1,5.02,0.00,22.6,23.2,00.0,31.2,24.6,06.9,0000.0,0008.74,0004.08,0003.64
2023-02-17 01:59:00,,0828.0,5.05,0.00,22.6,22.7,00.0,31.2,24.6,06.9,0000.0,0008.79,0004.10,0003.64
